Temperature
9 9 9 9 9 9 9 9 9 10 10 9 9 9 9 10 9 9 10 10 10 10 10 10 10 10 10 10 10 10 10 9 9 9 9 9 9 9 9 9 8 8 8
8 8 8 9 9 9 9 9 9 9 9 9 9 9 9 9 9 9 9 9 9 9 9 9 9 9 9 9 9 9 9 9 9 9 8 8 8 8 8 8 8 8 8
7 8 8 8 8 9 9 9 9 9 9 9 9 9 9 9 9 9 9 9 9 9 9 9 9 9 9 9 9 9 9 9 8 8 8 8 7 7 7 7 7 7 7
7 7 8 8 8 8 8 8 8 8 8 8 8 9 8 8 9 8 8 8 8 8 8 8 9 9 9 9 8 8 8 8 8 8 8 8 8 7 6 6 7 7 6
7 7 7 7 8 8 8 8 8 8 8 8 8 8 8 8 8 8 8 8 8 8 8 8 8 8 8 8 8 8 8 8 8 8 8 7 7 7 7 6 6 6 6
6 7 7 7 7 7 7 7 8 8 8 8 8 8 8 7 7 7 7 7 7 7 7 8 8 8 8 8 8 7 8 7 7 7 7 7 7 7 7 7 6 6 6
6 6 6 6 6 6 6 7 7 7 7 7 7 7 7 7 7 7 7 7 7 7 7 7 7 7 7 7 7 7 7 7 7 7 7 7 7 7 7 7 6 5 5
5 6 6 6 6 6 6 6 6 7 7 7 7 7 7 6 6 6 6 6 6 6 6 6 7 7 7 7 7 7 7 6 6 7 7 7 7 7 6 6 6 5 5
5 5 5 5 5 5 6 6 6 6 6 6 6 6 6 6 6 6 6 6 6 6 6 6 6 6 6 6 6 6 6 6 6 6 6 6 6 6 6 6 6 6 5
4 4 4 4 5 5 5 5 5 5 5 5 5 6 6 6 5 5 5 5 5 5 5 5 5 5 6 5 5 5 6 5 5 6 6 6 6 6 6 5 5 5 5
4 4 4 4 4 4 4 4 4 5 5 5 5 5 5 5 5 5 5 5 5 5 5 5 5 5 5 5 5 5 5 5 5 5 5 5 5 5 5 5 5 5 5
3 3 3 3 3 3 3 3 4 4 4 4 4 4 4 4 4 4 4 4 4 4 4 4 4 4 4 4 4 4 5 5 4 4 4 4 4 4 4 4 4 4 4
2 2 3 3 3 3 3 3 3 3 3 4 4 3 4 4 4 4 4 4 4 4 4 4 4 4 4 4 4 4 4 4 4 4 4 4 4 4 4 4 3 4 3
2 2 2 2 2 2 2 2 2 3 3 3 3 3 3 3 3 3 3 3 3 3 3 3 3 3 3 3 3 3 3 3 3 3 3 3 3 3 3 3 3 3 3
1 1 1 1 2 2 2 2 2 2 2 2 3 2 2 2 3 3 3 3 3 3 3 3 3 3 3 3 3 3 3 3 3 3 3 3 3 3 3 2 2 2 2
1 1 1 1 1 1 1 1 1 1 2 2 2 2 2 2 2 2 2 2 2 2 2 2 2 2 2 2 2 2 2 2 2 2 2 2 2 2 2 2 2 2 2
1 1 1 1 1 1 1 1 1 1 1 1 1 1 1 1 1 1 1 1 2 2 1 1 1 1 1 2 2 2 2 2 2 2 2 2 2 2 2 2 2 2 1
1 1 0 0 0 0 0 0 1 1 1 1 1 0 0 0 0 1 1 1 1 1 1 1 1 1 1 1 1 1 1 1 1 1 1 1 1 1 1 1 1 1 1
1 0 0 0 0 0 0 0 0 0 -0 -0 0 0 -0 -0 -0 -0 0 0 0 0 0 0 0 0 0 0 0 0 0 0 0 1 1 1 1 0 1 0 1 1 1
0 0 -0 -0 -0 -0 -0 -0 -0 -0 -0 -0 -0 -0 -1 -1 -1 -0 -0 -0 -0 -0 -0 -0 -0 -0 -0 -0 -0 -0 -0 -0 0 0 0 0 0 0 -0 -0 0 0 0
-0 -0 -0 -1 -1 -1 -1 -1 -1 -1 -1 -1 -1 -1 -1 -1 -1 -1 -1 -1 -1 -1 -1 -1 -1 -1 -1 -1 -1 -1 -0 -0 -0 -0 -0 -0 -0 -0 -0 -1 -0 -1 -0
-1 -1 -1 -1 -1 -1 -1 -1 -1 -1 -1 -1 -2 -2 -2 -2 -2 -1 -1 -2 -2 -2 -2 -2 -1 -1 -1 -1 -1 -1 -1 -1 -1 -0 -0 -0 -1 -1 -1 -1 -1 -1 -1
-1 -1 -1 -1 -1 -2 -2 -2 -2 -2 -2 -2 -2 -2 -2 -2 -2 -2 -2 -2 -2 -2 -2 -2 -2 -2 -2 -2 -2 -2 -1 -1 -1 -1 -1 -1 -1 -1 -1 -1 -1 -2 -2
-2 -2 -2 -2 -2 -2 -2 -2 -2 -2 -3 -3 -3 -3 -3 -3 -3 -3 -3 -2 -3 -3 -3 -3 -3 -3 -2 -2 -2 -2 -2 -2 -2 -2 -2 -2 -2 -2 -2 -2 -2 -2 -2
-2 -2 -2 -2 -2 -3 -3 -3 -3 -3 -3 -3 -3 -3 -3 -3 -3 -3 -3 -3 -3 -3 -3 -3 -3 -3 -3 -2 -2 -2 -2 -2 -2 -2 -2 -2 -2 -2 -2 -2 -2 -2 -3
-2 -2 -3 -3 -3 -3 -3 -3 -3 -3 -3 -3 -3 -3 -4 -4 -4 -4 -3 -3 -3 -3 -3 -3 -3 -3 -3 -3 -3 -3 -3 -3 -3 -3 -3 -3 -3 -3 -3 -3 -3 -3 -3
Wind_Speed
4 2 1 1 1 2 2 3 3 3 3 2 3 2 2 2 1 0 2 4 5 5 4 3 3 3 3 3 3 3 4 2 2 2 2 2 2 1 0 1 1 2 2
3 2 1 0 2 2 2 3 3 4 4 3 3 3 3 2 2 1 1 3 4 5 5 5 4 4 3 3 3 3 3 2 2 3 2 0 2 2 1 0 0 0 2
3 3 2 2 2 3 3 3 3 4 3 3 2 2 2 1 0 1 2 1 3 4 4 4 4 4 4 4 4 4 3 4 3 2 3 3 3 1 1 1 0 0 0
3 3 3 3 4 4 3 3 3 3 3 3 4 5 4 3 2 2 2 1 2 3 4 4 4 4 4 4 4 3 2 4 4 2 1 2 3 2 1 1 1 1 1
3 3 3 4 3 3 2 2 2 2 3 3 5 5 3 2 1 1 2 2 1 2 3 4 4 4 3 3 3 3 2 2 3 3 2 1 1 1 2 2 2 2 2
3 3 2 1 0 0 0 1 2 2 2 3 4 5 5 3 3 3 3 2 1 1 2 4 4 4 3 3 3 3 3 2 2 2 3 3 2 3 2 3 3 3 2
2 2 1 0 0 0 0 0 1 2 2 2 3 4 5 5 5 5 4 3 2 1 2 2 4 3 3 3 3 2 3 2 3 2 2 2 2 2 2 2 2 2 2
2 2 2 2 1 1 1 1 2 2 2 2 2 3 4 4 4 4 4 4 3 2 2 2 3 3 3 3 3 2 2 2 2 2 2 1 2 2 2 3 2 2 2
3 2 2 1 1 1 2 2 2 1 2 2 2 2 3 3 4 3 3 2 2 2 3 2 2 3 3 3 3 2 2 2 1 2 1 1 1 2 2 2 3 3 3
4 3 2 1 1 1 1 0 0 1 1 1 1 1 2 2 3 3 3 2 2 2 3 2 2 2 3 3 2 2 2 2 1 1 1 1 1 0 1 2 1 2 3
4 3 2 1 1 1 0 0 0 1 0 1 1 0 0 1 2 3 3 3 2 2 3 2 2 2 2 3 3 2 2 2 1 1 2 1 1 0 0 1 1 1 2
3 3 3 2 1 1 1 1 1 1 1 0 0 1 1 1 2 2 2 3 3 2 2 2 2 2 2 2 3 3 3 3 3 2 2 2 1 1 0 1 1 2 2
3 4 3 2 2 2 1 1 1 1 1 1 1 1 1 1 1 2 2 3 3 2 2 2 2 2 2 2 3 3 3 3 3 3 3 2 2 2 1 1 1 2 1
3 3 3 3 2 2 2 1 2 1 1 1 1 1 0 1 1 1 2 2 3 2 2 2 2 2 2 2 3 3 3 2 2 2 3 3 4 4 3 2 2 1 1
3 3 3 3 2 2 2 2 2 2 1 1 1 1 1 0 0 1 2 2 2 2 2 1 1 2 2 3 3 3 3 2 1 1 2 3 3 4 3 2 2 2 1
4 4 3 4 3 3 2 2 2 2 1 1 1 1 1 1 0 0 1 2 2 2 2 1 1 1 2 3 4 4 3 3 2 2 2 2 2 3 3 3 2 3 2
5 4 4 4 4 3 3 2 3 2 1 1 1 1 1 1 1 1 1 2 2 2 2 1 1 2 2 3 3 4 3 3 3 2 2 2 2 2 2 2 2 2 3
5 5 4 4 4 3 3 2 2 1 1 1 1 0 1 1 1 1 1 1 2 2 2 1 1 2 3 3 3 3 2 2 2 2 3 3 2 2 2 2 2 2 3
5 4 4 4 3 3 2 2 1 1 1 1 1 1 1 1 1 1 1 1 1 2 2 1 1 2 3 3 3 2 1 1 2 2 2 3 3 4 2 2 3 2 3
3 2 2 2 2 3 2 1 1 2 2 3 2 2 2 2 2 2 2 1 1 2 2 1 1 2 2 3 3 3 1 1 2 2 2 3 3 3 3 2 3 3 3
3 2 2 2 3 3 2 1 2 3 3 2 2 2 2 2 2 2 1 2 2 1 2 1 1 2 2 2 3 3 2 2 2 2 2 3 3 3 3 3 3 3 2
2 2 2 2 3 2 2 2 3 3 2 2 1 1 2 2 1 1 1 1 2 2 2 1 1 2 2 2 3 3 4 3 2 3 2 3 3 3 3 3 2 2 1
3 2 2 2 3 2 2 2 3 3 2 1 2 2 2 1 1 2 2 1 1 2 2 2 2 2 2 3 4 4 4 3 2 2 3 2 2 2 2 2 2 1 1
3 2 2 2 3 3 2 3 3 2 2 2 2 2 1 1 1 1 2 2 2 2 3 3 3 3 3 3 2 2 2 2 2 2 2 2 1 1 1 1 1 1 1
3 2 2 3 3 3 3 3 2 2 2 2 2 2 2 2 2 2 2 3 3 4 4 4 4 4 4 4 4 3 2 2 2 1 0 0 0 1 1 1 1 1 1
3 2 3 3 3 3 3 3 2 2 2 2 2 2 2 2 2 2 2 3 4 5 6 7 6 5 6 5 5 5 4 4 3 2 1 1 1 2 2 2 1 1 1
Wind_Direction
269 271 245 186 168 181 182 185 172 170 160 166 162 181 202 196 184 214 168 154 155 153 146 144 149 145 155 163 150 150 143 145 134 102 50 12 10 8 22 66 77 66 75
311 312 300 204 205 193 202 202 191 182 186 191 187 186 180 188 184 184 169 156 156 158 159 157 162 158 152 154 157 147 161 173 171 140 127 65 340 337 328 288 128 45 66
241 253 254 236 228 211 210 214 204 191 192 188 158 127 109 92 112 213 193 171 161 158 163 165 160 159 163 175 182 178 174 184 201 175 154 166 211 256 313 299 288 238 352
249 249 240 235 231 223 215 211 205 190 188 174 169 169 174 186 212 206 199 182 167 164 163 158 159 162 166 176 186 192 181 176 192 207 200 182 164 175 221 287 284 254 236
241 248 241 230 227 216 208 206 189 184 189 182 178 175 177 183 173 173 174 178 184 172 168 161 161 165 170 180 186 182 176 181 194 196 188 167 148 177 183 229 255 279 258
246 252 265 268 282 251 159 152 170 194 198 185 184 181 178 174 166 182 180 183 196 185 175 165 164 168 172 182 189 185 175 187 184 198 191 186 189 196 189 213 226 244 260
258 267 293 337 323 290 257 163 177 215 216 191 195 190 185 181 185 190 185 183 189 206 200 181 170 172 173 170 171 174 178 179 181 194 213 205 210 198 193 195 217 238 257
288 249 231 212 200 220 242 227 220 230 225 207 216 195 183 184 190 191 181 187 195 197 188 182 173 170 165 161 161 170 176 173 175 191 193 212 221 212 204 197 190 226 265
316 284 258 232 211 225 235 227 223 228 228 224 224 205 194 182 183 179 168 174 184 185 164 165 174 167 162 160 161 165 170 160 170 174 183 219 241 214 216 203 188 187 230
333 323 295 283 259 244 260 275 213 217 225 208 214 207 205 178 167 161 163 161 169 173 158 157 168 167 160 156 155 154 154 146 162 162 161 220 242 238 214 203 206 198 207
320 320 312 304 309 0 11 21 21 29 240 214 210 182 194 152 143 152 166 169 170 170 167 167 168 175 170 163 158 164 158 151 159 165 170 210 219 195 272 222 204 212 200
326 335 341 349 4 2 349 348 343 11 302 247 157 138 113 110 143 159 173 169 165 176 168 160 165 173 179 170 165 171 172 171 179 192 182 207 194 168 245 244 231 231 220
337 338 348 353 346 331 330 339 342 334 344 72 91 87 99 119 159 176 175 167 157 153 145 151 168 179 179 176 172 172 175 182 191 195 195 206 189 205 222 224 235 240 234
313 332 339 334 334 326 308 312 323 319 340 93 113 124 178 195 185 172 165 166 159 152 150 165 179 178 174 179 172 167 165 178 194 203 204 207 204 209 211 214 215 216 207
299 305 316 321 324 331 324 315 314 314 309 133 133 200 208 182 120 137 164 161 157 159 155 149 170 183 183 193 177 171 171 178 191 215 220 219 211 210 211 209 208 198 200
279 288 303 313 316 308 304 307 307 303 281 197 196 198 165 156 168 171 161 155 154 143 142 156 180 196 218 200 190 181 181 184 188 210 231 226 218 222 227 220 211 202 200
265 270 278 284 291 292 285 282 287 299 285 231 225 205 189 183 205 191 159 175 176 151 150 166 183 221 234 210 204 195 181 184 200 212 225 244 240 225 228 239 247 238 235
258 264 271 276 283 288 291 288 301 305 293 279 260 220 195 204 207 183 184 199 179 167 179 186 204 233 236 219 211 194 178 179 209 224 226 228 245 237 217 219 235 246 250
255 256 256 262 277 284 287 305 322 310 284 260 249 232 205 218 220 221 223 210 187 195 207 204 197 235 247 226 207 194 177 205 235 242 233 231 243 245 230 209 230 257 273
272 268 270 280 277 281 281 297 301 293 277 260 248 240 215 222 231 233 241 245 218 223 213 219 220 237 246 228 216 202 190 210 244 253 246 244 248 248 230 219 222 242 262
275 273 266 264 271 277 276 283 293 285 284 276 262 257 238 232 231 234 242 233 229 222 218 219 246 252 257 244 223 213 205 211 230 247 263 264 260 243 235 241 237 248 260
281 270 264 277 285 281 269 281 286 293 298 286 266 260 260 250 236 215 239 233 208 208 221 222 249 266 271 267 253 239 227 224 225 240 251 260 262 247 244 252 264 277 296
277 281 266 277 288 280 256 269 287 298 296 289 281 272 267 259 236 221 226 239 220 216 223 221 237 259 262 256 257 253 246 235 241 251 260 270 266 267 263 267 271 286 286
276 280 265 271 287 295 290 273 277 279 273 272 279 275 260 263 261 243 225 223 224 226 226 223 231 244 251 245 243 249 243 242 255 265 260 267 264 284 302 329 317 291 245
274 262 248 255 271 287 296 292 269 249 261 267 267 266 264 256 261 263 243 233 236 229 230 232 228 228 242 243 239 233 227 220 228 226 241 223 242 301 305 312 320 314 317
265 267 268 266 274 284 292 291 274 243 237 256 256 253 252 248 247 258 288 272 254 255 254 247 244 247 247 251 244 239 236 233 216 199 202 220 226 242 254 259 273 277 273
Height
1489 1489 1490 1490 1491 1492 1492 1493 1493 1494 1495 1496 1497 1498 1499 1500 1501 1502 1503 1504 1506 1507 1509 1510 1512 1513 1514 1515 1517 1518 1520 1521 1523 1524 1524 1525 1526 1527 1527 1527 1527 1527 1527
1486 1486 1486 1486 1487 1488 1489 1490 1490 1491 1492 1493 1494 1495 1496 1497 1498 1499 1500 1502 1503 1504 1506 1507 1509 1510 1512 1513 1514 1515 1516 1518 1519 1520 1521 1522 1524 1523 1524 1524 1524 1524 1525
1483 1483 1482 1482 1483 1484 1485 1486 1487 1488 1489 1490 1491 1492 1493 1494 1495 1496 1496 1498 1500 1501 1503 1505 1506 1507 1509 1510 1511 1512 1513 1514 1516 1517 1519 1519 1519 1519 1520 1521 1521 1522 1522
1480 1479 1479 1479 1479 1480 1481 1483 1484 1485 1485 1486 1488 1489 1490 1490 1491 1493 1494 1495 1496 1498 1500 1501 1503 1504 1506 1507 1508 1509 1510 1511 1512 1514 1515 1516 1516 1517 1516 1518 1518 1518 1518
1477 1476 1476 1476 1477 1477 1478 1479 1481 1482 1483 1483 1485 1486 1487 1488 1489 1490 1491 1492 1493 1495 1497 1499 1500 1501 1503 1504 1505 1506 1507 1508 1509 1510 1511 1512 1513 1513 1513 1513 1514 1515 1515
1474 1474 1473 1473 1474 1474 1475 1476 1478 1479 1480 1480 1482 1483 1484 1485 1486 1487 1488 1490 1491 1492 1494 1495 1497 1498 1500 1501 1502 1503 1504 1505 1506 1506 1507 1508 1509 1510 1510 1509 1509 1510 1511
1472 1472 1471 1470 1471 1471 1472 1473 1474 1475 1476 1477 1479 1480 1481 1482 1483 1485 1486 1487 1488 1489 1491 1492 1494 1495 1497 1498 1499 1500 1500 1501 1502 1503 1504 1505 1506 1507 1507 1507 1506 1506 1507
1471 1470 1470 1469 1469 1469 1470 1470 1471 1472 1473 1475 1476 1477 1478 1479 1481 1482 1483 1484 1485 1487 1488 1490 1491 1492 1494 1495 1496 1496 1497 1498 1499 1500 1501 1502 1502 1503 1503 1503 1503 1502 1503
1470 1469 1468 1468 1468 1468 1468 1468 1469 1469 1471 1472 1473 1474 1476 1476 1478 1479 1480 1481 1483 1484 1485 1487 1488 1489 1490 1491 1492 1493 1494 1495 1496 1497 1497 1498 1498 1499 1500 1500 1500 1500 1499
1470 1468 1467 1466 1466 1466 1466 1466 1467 1467 1468 1470 1471 1472 1473 1473 1475 1476 1477 1478 1480 1481 1482 1483 1484 1485 1486 1488 1489 1490 1491 1492 1492 1493 1494 1495 1495 1495 1495 1496 1496 1497 1496
1469 1467 1466 1465 1465 1465 1464 1464 1465 1465 1466 1467 1468 1469 1470 1471 1472 1473 1474 1476 1477 1478 1479 1480 1481 1482 1483 1484 1485 1486 1487 1488 1489 1490 1490 1490 1491 1491 1492 1492 1492 1492 1493
1469 1467 1466 1465 1464 1463 1463 1463 1463 1463 1464 1464 1465 1466 1467 1468 1469 1470 1472 1473 1474 1475 1476 1477 1478 1479 1480 1481 1482 1483 1484 1485 1485 1486 1486 1486 1487 1487 1488 1488 1488 1488 1489
1468 1467 1465 1464 1463 1462 1461 1461 1461 1461 1462 1462 1462 1463 1464 1465 1466 1467 1469 1470 1471 1472 1473 1474 1475 1475 1476 1477 1478 1480 1480 1481 1482 1482 1483 1483 1484 1484 1484 1484 1484 1485 1485
1467 1465 1464 1463 1462 1461 1460 1460 1460 1460 1460 1460 1460 1461 1461 1462 1463 1464 1466 1467 1468 1469 1470 1471 1472 1472 1473 1474 1475 1476 1477 1478 1478 1479 1480 1480 1480 1481 1481 1481 1481 1481 1481
1466 1464 1463 1461 1460 1459 1459 1458 1458 1458 1458 1458 1458 1458 1459 1460 1461 1462 1463 1464 1465 1466 1467 1468 1468 1469 1470 1471 1471 1472 1474 1474 1475 1475 1476 1477 1477 1477 1478 1477 1477 1478 1477
1464 1462 1461 1460 1458 1457 1457 1456 1455 1455 1455 1455 1455 1456 1457 1457 1458 1458 1459 1460 1461 1462 1463 1464 1465 1466 1466 1468 1468 1469 1470 1471 1471 1472 1472 1473 1473 1474 1474 1474 1474 1475 1474
1462 1460 1459 1457 1456 1455 1455 1454 1453 1453 1453 1452 1453 1454 1454 1455 1455 1455 1456 1457 1458 1459 1460 1461 1461 1462 1463 1464 1465 1465 1467 1467 1468 1468 1469 1469 1470 1470 1470 1470 1470 1471 1471
1459 1458 1457 1455 1454 1453 1453 1452 1451 1451 1450 1450 1450 1451 1452 1452 1452 1453 1453 1454 1455 1456 1456 1457 1458 1459 1460 1461 1461 1462 1463 1463 1464 1465 1466 1466 1466 1466 1466 1466 1466 1467 1467
1456 1455 1454 1453 1452 1451 1451 1450 1449 1449 1448 1448 1448 1449 1449 1449 1449 1450 1450 1451 1452 1452 1453 1454 1454 1455 1457 1457 1458 1459 1459 1460 1461 1462 1462 1462 1462 1463 1463 1463 1463 1463 1463
1454 1452 1451 1451 1450 1449 1448 1448 1447 1447 1446 1446 1446 1447 1447 1447 1447 1447 1447 1448 1448 1449 1450 1450 1451 1452 1453 1454 1455 1456 1456 1457 1457 1458 1458 1459 1459 1459 1459 1459 1459 1459 1459
1451 1450 1449 1448 1447 1447 1446 1445 1444 1444 1444 1444 1444 1444 1444 1444 1444 1444 1444 1445 1445 1446 1446 1447 1448 1449 1449 1450 1451 1452 1453 1453 1454 1454 1454 1455 1456 1456 1456 1456 1456 1456 1456
1448 1447 1446 1445 1445 1444 1443 1442 1442 1442 1442 1442 1442 1441 1441 1441 1441 1441 1441 1442 1442 1443 1443 1443 1444 1445 1446 1447 1448 1449 1450 1450 1450 1451 1451 1451 1452 1452 1452 1452 1452 1452 1452
1445 1445 1443 1442 1442 1441 1441 1440 1439 1439 1439 1439 1438 1438 1438 1438 1438 1438 1438 1439 1439 1440 1440 1440 1440 1441 1442 1443 1444 1445 1446 1446 1447 1447 1448 1448 1448 1448 1448 1448 1449 1448 1448
1443 1442 1441 1440 1439 1438 1438 1437 1437 1436 1436 1435 1435 1435 1435 1435 1435 1435 1435 1436 1436 1436 1437 1437 1437 1438 1439 1439 1440 1441 1442 1442 1443 1444 1444 1445 1445 1445 1445 1445 1445 1445 1444
1440 1439 1438 1437 1436 1435 1434 1434 1434 1434 1433 1432 1432 1432 1432 1432 1431 1432 1432 1432 1433 1433 1434 1434 1434 1435 1435 1436 1437 1437 1438 1439 1439 1440 1440 1440 1440 1441 1441 1441 1441 1441 1441
1436 1435 1434 1433 1433 1432 1431 1431 1431 1430 1430 1429 1429 1429 1429 1429 1428 1428 1428 1429 1429 1430 1430 1431 1431 1431 1432 1432 1433 1434 1435 1435 1436 1436 1436 1436 1436 1437 1437 1437 1437 1437 1437